BEIDOU-3 IGSO-1

Last updated on Tue Sep 22 2026 00:03:15 GMT+0000 (Coordinated Universal Time)

1 44204U 19023A 26263.85148031 -.00000192 00000+0 00000+0 0 9999 2 44204 58.8322 36.6727 0027959 223.2577 164.8579 1.00264302 8179
UTC large
Height (km)
Speed (km/s)
/
Latitude / Longitude
Inclination (degrees)
Orbital Period (minutes)
Azimuth
Elevation
Range (km)
Doppler Factor

Next 0 passes for location: London (51.5072 / 0.1276)

No passes found over London.
BEIDOU-3 IGSO-1